Weather in Pisky-Radkivski

Ukraine / Kharkiv Region     49°16′00″N   37°36′32″E
В апреле 2022 года жителям России запретили посещать сайт meteo.paraplan.net по решению Генеральной прокуратуры. Аудитория сайта уменьшилась в 10 раз. Владельцы сайта не видят смысла в поддержке погодного сервера в таких условиях. Сайт будет закрыт в октябре.
temp.,
°C
wind,
m/s
gust,
m/s
humid.,
%
clouds,
%
prec.,
mm/h
press.,
hPa
HPBL,
m
25 september, sun
sun2500:00+8wsw5118761 0.0 1012316
03:00+8wsw61388100 0.0 1013514
06:00+8wsw7148974 0.0 1013604
09:00+10w9157778 0.0 10131123
12:00+15w10145013 0.0 10141828
15:00+16w913435 0.0 10142116
18:00+14w612495 0.0 1015441
21:00+11wsw51159100 0.0 1016279
26 september, mon
mon2600:00+9wsw497034 0.0 1016186
03:00+10wsw3866100 0.0 1016206
06:00+10sw2265100 0.0 101651
09:00+13sw355462 0.0 1016331
12:00+17wsw466195 0.1 10151024
15:00+19wsw5851100 0.4 10151776
18:00+16w226276 0.0 101514
21:00+15se2265100 0.0 101414
27 september, tue
tue2700:00+13sse3878100 0.0 1014174
03:00+11s3485100 0.0 101387
06:00+11s2494100 0.0 101270
09:00+15s4879100 0.0 1011318
12:00+19s455998 0.0 1010738
15:00+20se3454100 0.0 1009509
18:00+18ese3557100 0.0 100887
21:00+15ese4862100 0.0 1007138
28 september, wed
wed2800:00+14se4867100 0.0 1006154
03:00+14ese4863100 0.0 1005150
06:00+13se3761100 0.0 1003143
09:00+15sse3866100 0.1 1004284
12:00+17ssw5978100 0.3 1003585
15:00+14se3785100 1.4 1002216
18:00+15sw25866 0.1 1003161
21:00+13ssw229680 2.4 100427
29 september, thu
thu2900:00+14wsw22948 0.0 100536
03:00+12wnw36955 0.0 1007136
06:00+10wnw37955 0.0 1009166
09:00+14nw47760 0.0 1010365
12:00+18nw45545 0.0 10111251
15:00+20nw5647100 0.0 10121601
18:00+16n2263100 0.0 101411
21:00+15n0166100 0.0 101510